EXECJET YSSY-YMML

Flight info

Callsign EXECJET
Flight time N/A
Altitude 47000
Route WOL H65 LEECE Q29 ML
Aircraft C750/M-SBDE3FGHRWXY/S

Departure

Time 2026-04-24 13:36
Airport Sydney Kingsford Smith International Airport (YSSY)

Arrival

Time N/A
Airport Melbourne Airport (YMML)
Time Latitude Longitude Altitude Speed Heading
2026-04-24 12:40 -33.94456 151.17241 24 ft 0 kts 161°
2026-04-24 13:22 -33.94441 151.17234 25 ft 2 kts 161°
2026-04-24 13:22 -33.94424 151.17228 24 ft 3 kts 161°
2026-04-24 13:22 -33.94408 151.17221 23 ft 3 kts 161°
2026-04-24 13:23 -33.94391 151.17214 23 ft 3 kts 161°
2026-04-24 13:23 -33.94374 151.17207 25 ft 3 kts 161°
2026-04-24 13:23 -33.94359 151.17198 24 ft 2 kts 106°
2026-04-24 13:23 -33.94358 151.17191 22 ft 0 kts 78°
2026-04-24 13:26 -33.94356 151.17201 22 ft 8 kts 76°
2026-04-24 13:27 -33.94307 151.17300 22 ft 17 kts 21°
2026-04-24 13:27 -33.94261 151.17299 20 ft 0 kts 347°
2026-04-24 13:27 -33.94258 151.17298 21 ft 1 kts 347°
2026-04-24 13:27 -33.94256 151.17298 20 ft 0 kts 347°
2026-04-24 13:28 -33.94254 151.17297 20 ft 3 kts 347°
2026-04-24 13:28 -33.94176 151.17276 19 ft 21 kts 347°
2026-04-24 13:28 -33.94064 151.17247 18 ft 28 kts 348°
2026-04-24 13:29 -33.93855 151.17193 12 ft 33 kts 347°
2026-04-24 13:29 -33.93682 151.17149 17 ft 19 kts 348°
2026-04-24 13:29 -33.93550 151.17115 17 ft 19 kts 348°
2026-04-24 13:29 -33.93441 151.17155 13 ft 11 kts 73°
2026-04-24 13:30 -33.93440 151.17160 13 ft 0 kts 75°
2026-04-24 13:35 -33.93432 151.17202 12 ft 13 kts 78°
2026-04-24 13:35 -33.93433 151.17294 12 ft 5 kts 185°
2026-04-24 13:35 -33.93648 151.17345 12 ft 84 kts 168°
2026-04-24 13:36 -33.94518 151.17573 62 ft 154 kts 168°
2026-04-24 13:36 -33.95598 151.17860 430 ft 162 kts 168°
2026-04-24 13:36 -33.96711 151.18156 800 ft 169 kts 168°
2026-04-24 13:36 -33.97904 151.18311 984 ft 180 kts 189°
2026-04-24 13:37 -33.99113 151.17857 1277 ft 182 kts 195°
2026-04-24 13:37 -34.00301 151.17668 1975 ft 161 kts 184°
2026-04-24 13:37 -34.01353 151.17599 2691 ft 148 kts 184°
2026-04-24 13:37 -34.02435 151.17516 2947 ft 167 kts 184°
2026-04-24 13:38 -34.03584 151.17785 3317 ft 171 kts 162°
2026-04-24 13:38 -34.04781 151.18216 3785 ft 190 kts 165°
2026-04-24 13:38 -34.06126 151.18655 4257 ft 210 kts 165°
2026-04-24 13:38 -34.07596 151.19139 4709 ft 226 kts 165°
2026-04-24 13:39 -34.09090 151.19639 5116 ft 218 kts 165°
2026-04-24 13:39 -34.10536 151.20122 5492 ft 218 kts 165°
2026-04-24 13:39 -34.12035 151.20621 5874 ft 235 kts 165°
2026-04-24 13:39 -34.13630 151.21153 6444 ft 237 kts 165°
2026-04-24 13:40 -34.15163 151.21666 7054 ft 220 kts 165°
2026-04-24 13:40 -34.16589 151.22142 7652 ft 205 kts 165°
2026-04-24 13:40 -34.17949 151.22595 8249 ft 206 kts 165°
2026-04-24 13:40 -34.19383 151.22918 8804 ft 217 kts 182°
2026-04-24 13:41 -34.20794 151.22238 9328 ft 226 kts 218°
2026-04-24 13:41 -34.21850 151.20834 9961 ft 226 kts 231°
2026-04-24 13:41 -34.22836 151.19332 10612 ft 233 kts 232°
2026-04-24 13:41 -34.23881 151.17781 11371 ft 239 kts 231°
2026-04-24 13:42 -34.24910 151.16263 12493 ft 229 kts 231°
2026-04-24 13:42 -34.25907 151.14791 13511 ft 223 kts 231°
2026-04-24 13:42 -34.26881 151.13353 14441 ft 219 kts 231°
2026-04-24 13:42 -34.27845 151.11945 15318 ft 217 kts 230°
2026-04-24 13:43 -34.28846 151.10529 15939 ft 227 kts 229°
2026-04-24 13:43 -34.29908 151.09060 16571 ft 236 kts 229°
2026-04-24 13:43 -34.31021 151.07539 17210 ft 246 kts 229°
2026-04-24 13:43 -34.32182 151.05963 17855 ft 256 kts 229°
2026-04-24 13:44 -34.33331 151.04271 18494 ft 265 kts 234°
2026-04-24 13:44 -34.34387 151.02425 19262 ft 269 kts 236°
2026-04-24 13:44 -34.35516 151.00593 20020 ft 274 kts 231°
2026-04-24 13:44 -34.36758 150.98810 20780 ft 279 kts 230°
2026-04-24 13:45 -34.37957 150.97097 21498 ft 283 kts 230°
2026-04-24 13:45 -34.39225 150.95216 22261 ft 287 kts 231°
2026-04-24 13:45 -34.40488 150.93329 23008 ft 290 kts 231°
2026-04-24 13:45 -34.41774 150.91430 23756 ft 293 kts 231°
2026-04-24 13:46 -34.43073 150.89514 24501 ft 295 kts 231°
2026-04-24 13:46 -34.44438 150.87654 25195 ft 298 kts 221°
2026-04-24 13:46 -34.46164 150.86259 25925 ft 299 kts 210°
2026-04-24 13:46 -34.47993 150.85053 26680 ft 299 kts 208°
2026-04-24 13:47 -34.49798 150.83800 27429 ft 299 kts 212°
2026-04-24 13:47 -34.51546 150.82413 28013 ft 306 kts 214°
2026-04-24 13:47 -34.53403 150.80922 28013 ft 333 kts 213°
2026-04-24 13:47 -34.55436 150.79362 28020 ft 358 kts 212°
2026-04-24 13:48 -34.57563 150.77749 28608 ft 362 kts 212°
2026-04-24 13:48 -34.59667 150.76044 29217 ft 366 kts 220°
2026-04-24 13:48 -34.61206 150.73588 29717 ft 371 kts 246°
2026-04-24 13:48 -34.61886 150.70568 30333 ft 373 kts 260°
2026-04-24 13:49 -34.62300 150.67464 31012 ft 373 kts 261°
2026-04-24 13:49 -34.62799 150.64369 31669 ft 374 kts 257°
2026-04-24 13:49 -34.63501 150.61321 32313 ft 375 kts 252°
2026-04-24 13:49 -34.64430 150.58404 32930 ft 376 kts 246°
2026-04-24 13:50 -34.65648 150.55622 33526 ft 377 kts 237°
2026-04-24 13:50 -34.67280 150.53073 34137 ft 378 kts 229°
2026-04-24 13:50 -34.69050 150.50761 34755 ft 378 kts 227°
2026-04-24 13:50 -34.70807 150.48394 35371 ft 377 kts 230°
2026-04-24 13:51 -34.72423 150.45891 35990 ft 376 kts 233°
2026-04-24 13:51 -34.74011 150.43369 36603 ft 375 kts 232°
2026-04-24 13:51 -34.75660 150.40920 37214 ft 374 kts 230°
2026-04-24 13:51 -34.77320 150.38502 37821 ft 372 kts 231°
2026-04-24 13:52 -34.78945 150.36059 38425 ft 370 kts 231°
2026-04-24 13:52 -34.80545 150.33620 39027 ft 367 kts 231°
2026-04-24 13:52 -34.82146 150.31210 39629 ft 364 kts 231°
2026-04-24 13:52 -34.83736 150.28833 40223 ft 361 kts 231°
2026-04-24 13:53 -34.85305 150.26473 40817 ft 356 kts 231°
2026-04-24 13:53 -34.86846 150.24143 41405 ft 351 kts 231°
2026-04-24 13:53 -34.88367 150.21849 41989 ft 345 kts 231°
2026-04-24 13:53 -34.89862 150.19596 42562 ft 339 kts 231°
2026-04-24 13:54 -34.91346 150.17357 42895 ft 340 kts 231°
2026-04-24 13:54 -34.92831 150.15112 43242 ft 340 kts 231°
2026-04-24 13:54 -34.94314 150.12869 43596 ft 339 kts 231°
2026-04-24 13:54 -34.95782 150.10649 43952 ft 338 kts 231°
2026-04-24 13:55 -34.97197 150.08508 44299 ft 337 kts 231°
2026-04-24 13:55 -34.98661 150.06290 44661 ft 335 kts 231°
2026-04-24 13:55 -35.00115 150.04087 45019 ft 332 kts 231°
2026-04-24 13:55 -35.01556 150.01902 45373 ft 329 kts 231°
2026-04-24 13:56 -35.02987 149.99731 45655 ft 328 kts 231°
2026-04-24 13:56 -35.04418 149.97559 45886 ft 328 kts 231°
2026-04-24 13:56 -35.05847 149.95387 46123 ft 328 kts 231°
2026-04-24 13:56 -35.07274 149.93217 46360 ft 327 kts 231°
2026-04-24 13:57 -35.08690 149.91054 46603 ft 326 kts 233°
2026-04-24 13:57 -35.10016 149.88815 46843 ft 324 kts 236°
2026-04-24 13:57 -35.11278 149.86542 47034 ft 324 kts 236°
2026-04-24 13:57 -35.12599 149.84266 47001 ft 331 kts 234°
2026-04-24 13:58 -35.15359 149.79624 47012 ft 344 kts 234°
2026-04-24 13:58 -35.18167 149.74796 47014 ft 357 kts 234°
2026-04-24 13:59 -35.21112 149.69769 47014 ft 371 kts 234°
2026-04-24 13:59 -35.24157 149.64543 47017 ft 384 kts 234°
2026-04-24 14:00 -35.27310 149.59134 47006 ft 397 kts 234°
2026-04-24 14:00 -35.30565 149.53538 47019 ft 410 kts 234°
2026-04-24 14:01 -35.33908 149.47782 47012 ft 420 kts 234°
2026-04-24 14:01 -35.37338 149.41865 47006 ft 432 kts 234°
2026-04-24 14:02 -35.40867 149.35772 47006 ft 444 kts 234°
2026-04-24 14:02 -35.44472 149.29538 47011 ft 452 kts 235°
2026-04-24 14:03 -35.48132 149.23181 47013 ft 461 kts 235°
2026-04-24 14:03 -35.51854 149.16721 47013 ft 466 kts 235°
2026-04-24 14:04 -35.55639 149.10175 46988 ft 474 kts 232°
2026-04-24 14:04 -35.58294 149.07914 45436 ft 482 kts 182°
2026-04-24 14:04 -35.61577 149.07397 43539 ft 442 kts 189°
2026-04-24 14:05 -35.64482 149.06665 44803 ft 408 kts 195°
2026-04-24 14:05 -35.67205 149.05776 45143 ft 408 kts 195°
2026-04-24 14:05 -35.69994 149.04785 44459 ft 433 kts 198°
2026-04-24 14:05 -35.72876 149.03430 43968 ft 450 kts 205°
2026-04-24 14:06 -35.75612 149.01463 43889 ft 457 kts 217°
2026-04-24 14:06 -35.78014 148.98920 44351 ft 454 kts 226°
2026-04-24 14:06 -35.80017 148.95942 44761 ft 451 kts 236°
2026-04-24 14:06 -35.81575 148.92602 45143 ft 449 kts 245°
2026-04-24 14:07 -35.82643 148.89002 45506 ft 447 kts 255°
2026-04-24 14:07 -35.83237 148.85209 45421 ft 456 kts 263°
2026-04-24 14:07 -35.83492 148.81265 45424 ft 463 kts 266°
2026-04-24 14:08 -35.83538 148.80317 45419 ft 0 kts 262°
2026-04-24 14:08 -36.91130 146.30896 45419 ft 32000 kts 262°
2026-04-24 14:08 -36.85329 146.13324 19937 ft 0 kts 262°
2026-04-24 14:08 -36.85368 146.12967 10014 ft 0 kts 262°
2026-04-24 14:09 -36.86115 146.09427 8187 ft 395 kts 255°
2026-04-24 14:09 -36.86703 146.07653 7026 ft 0 kts 248°
2026-04-24 14:09 -36.86710 146.07633 20540 ft 358 kts 248°
2026-04-24 14:09 -36.87963 146.05390 9831 ft 312 kts 233°
2026-04-24 14:10 -36.88571 146.04630 3667 ft 0 kts 197°
2026-04-24 14:10 -36.88916 146.04143 19669 ft 300 kts 254°
2026-04-24 14:10 -36.90780 146.02074 7811 ft 439 kts 192°
2026-04-24 14:11 -36.91490 146.02093 4271 ft 0 kts 210°
2026-04-24 14:11 -36.91489 146.02095 6316 ft 0 kts 76°
2026-04-24 14:11 -36.91320 146.02859 6287 ft 0 kts 207°
2026-04-24 14:12 -36.91663 146.02766 5310 ft 342 kts 186°
2026-04-24 14:12 -36.92279 146.02777 1023 ft 0 kts 131°
2026-04-24 14:12 -36.92278 146.02777 1339 ft 0 kts 124°
2026-04-24 14:12 -36.92771 146.05129 1713 ft 0 kts 181°
2026-04-24 14:13 -36.99038 146.03150 3127 ft 2689 kts 192°
2026-04-24 14:13 -37.07871 145.85906 3127 ft 2900 kts 192°
2026-04-24 14:13 -37.16952 145.68426 3127 ft 3030 kts 192°
2026-04-24 14:13 -37.26371 145.50275 3127 ft 2857 kts 192°
2026-04-24 14:14 -37.33348 145.36815 3127 ft 2365 kts 192°
2026-04-24 14:14 -37.36513 145.30736 3127 ft 0 kts 192°